Ironwood, MI

11:13 AM CDT on March 26, 2017 (GMT -0500)
Gogebic-Iron County

Weather History for KIWD - March, 2014

Change the Weather History Date:

Monday, March 31, 2014

  Actual Average Record
Temperature  
Mean Temperature 46 °F -  
Max Temperature 51 °F 40 °F 59 °F (1999)
Min Temperature 42 °F 22 °F 3 °F (1997)
Degree Days  
Heating Degree Days 18    
Moisture  
Dew Point 32 °F    
Average Humidity 59    
Maximum Humidity 76    
Minimum Humidity 47    
Precipitation  
Precipitation 0.01 in - - ()
Sea Level Pressure  
Sea Level Pressure 29.69 in    
Wind  
Wind Speed 9 mph (ESE)    
Max Wind Speed 16 mph    
Max Gust Speed 24 mph    
Visibility 10 miles    
Events Thunderstorm    
Averages and records for this station are not official NWS values.
T = Trace of Precipitation, MM = Missing Value Source: NWS Daily Summary

Daily Weather History Graph

Daily Weather History Graph

Search for Another Location

Airport or City:

Trip Planner

Search our weather history database for the weather conditions in past years. The results will help you decide how hot, cold, wet, or windy it might be!

Date:

Astronomy

Mar. 31, 2014 Rise Set
Actual Time 6:41 AM CDT 7:28 PM CDT
Civil Twilight 6:11 AM CDT 7:58 PM CDT
Nautical Twilight 5:35 AM CDT 8:35 PM CDT
Astronomical Twilight 4:57 AM CDT 9:13 PM CDT
Moon 7:01 AM CDT (3/31) 8:52 PM CDT (3/31)
Length of Visible Light 13h 47m
Length of Day
12h 46m
New Moon, 1% of the Moon is Illuminated
Mar 31
New Moon
Apr 7
First Quarter
Apr 15
Full
Apr 22
Last Quarter
Apr 29
New

Hourly Weather History & Observations

Time (CDT) Temp. Windchill Dew Point Humidity Pressure Visibility Wind Dir Wind Speed Gust Speed Precip Events Conditions
12:15 AM 44.6 °F 39.7 °F 28.4 °F 53% 29.90 in 10.0 mi East 9.2 mph - N/A   Overcast
12:35 AM 44.6 °F 39.2 °F 28.4 °F 53% 29.89 in 10.0 mi East 10.4 mph - N/A   Overcast
12:55 AM 44.6 °F 40.2 °F 28.4 °F 53% 29.90 in 10.0 mi East 8.1 mph - N/A   Overcast
1:15 AM 44.6 °F 39.2 °F 28.4 °F 53% 29.89 in 10.0 mi East 10.4 mph - N/A   Overcast
1:35 AM 42.8 °F 38.0 °F 28.4 °F 57% 29.89 in 10.0 mi East 8.1 mph - N/A   Mostly Cloudy
1:55 AM 44.6 °F 38.8 °F 28.4 °F 53% 29.89 in 10.0 mi East 11.5 mph - N/A   Mostly Cloudy
2:15 AM 44.6 °F 39.2 °F 28.4 °F 53% 29.88 in 10.0 mi East 10.4 mph - N/A   Overcast
2:35 AM 42.8 °F 37.0 °F 28.4 °F 57% 29.87 in 10.0 mi East 10.4 mph - N/A   Overcast
2:55 AM 42.8 °F 37.0 °F 30.2 °F 61% 29.86 in 10.0 mi East 10.4 mph - N/A   Mostly Cloudy
3:15 AM 42.8 °F 37.5 °F 30.2 °F 61% 29.86 in 10.0 mi East 9.2 mph - N/A   Clear
3:35 AM 42.8 °F 37.5 °F 28.4 °F 57% 29.85 in 10.0 mi East 9.2 mph - N/A   Clear
3:55 AM 42.8 °F 37.0 °F 30.2 °F 61% 29.85 in 10.0 mi East 10.4 mph - N/A   Mostly Cloudy
4:15 AM 42.8 °F 37.0 °F 30.2 °F 61% 29.85 in 10.0 mi East 10.4 mph - N/A   Overcast
4:35 AM 42.8 °F 36.6 °F 30.2 °F 61% 29.84 in 10.0 mi East 11.5 mph - N/A   Overcast
4:55 AM 42.8 °F 36.6 °F 30.2 °F 61% 29.84 in 10.0 mi ESE 11.5 mph - N/A   Overcast
5:15 AM 42.8 °F 36.6 °F 30.2 °F 61% 29.84 in 10.0 mi East 11.5 mph - N/A   Overcast
5:35 AM 42.8 °F 36.6 °F 32.0 °F 66% 29.83 in 10.0 mi East 11.5 mph - N/A   Overcast
5:55 AM 42.8 °F 36.6 °F 32.0 °F 66% 29.83 in 10.0 mi East 11.5 mph - N/A   Overcast
6:15 AM 42.8 °F 37.0 °F 32.0 °F 66% 29.83 in 10.0 mi East 10.4 mph - N/A   Overcast
6:35 AM 42.8 °F 36.6 °F 32.0 °F 66% 29.82 in 10.0 mi East 11.5 mph - N/A   Overcast
6:55 AM 44.6 °F 39.2 °F 32.0 °F 61% 29.82 in 10.0 mi East 10.4 mph - N/A   Mostly Cloudy
7:15 AM 44.6 °F 39.2 °F 33.8 °F 66% 29.82 in 10.0 mi ESE 10.4 mph - N/A   Mostly Cloudy
7:35 AM 44.6 °F 38.8 °F 32.0 °F 61% 29.81 in 10.0 mi ESE 11.5 mph - N/A   Mostly Cloudy
7:55 AM 44.6 °F 39.7 °F 32.0 °F 61% 29.80 in 10.0 mi ESE 9.2 mph - N/A   Mostly Cloudy
8:15 AM 44.6 °F 39.7 °F 32.0 °F 61% 29.80 in 10.0 mi East 9.2 mph - N/A   Overcast
8:35 AM 44.6 °F 40.2 °F 33.8 °F 66% 29.79 in 10.0 mi East 8.1 mph - N/A   Mostly Cloudy
8:55 AM 46.4 °F 40.7 °F 33.8 °F 62% 29.78 in 10.0 mi ESE 12.7 mph 19.6 mph N/A   Clear
9:15 AM 46.4 °F 41.9 °F 33.8 °F 62% 29.78 in 10.0 mi SE 9.2 mph - N/A   Scattered Clouds
9:35 AM 46.4 °F 42.4 °F 33.8 °F 62% 29.78 in 10.0 mi ESE 8.1 mph 19.6 mph N/A   Overcast
9:55 AM 46.4 °F 43.5 °F 33.8 °F 62% 29.78 in 10.0 mi ESE 5.8 mph - N/A   Overcast
10:15 AM 46.4 °F 41.9 °F 33.8 °F 62% 29.78 in 10.0 mi SE 9.2 mph - N/A   Overcast
10:35 AM 46.4 °F 41.9 °F 33.8 °F 62% 29.77 in 10.0 mi ESE 9.2 mph - N/A   Overcast
10:55 AM 46.4 °F 42.4 °F 33.8 °F 62% 29.76 in 10.0 mi SE 8.1 mph - N/A   Overcast
11:15 AM 48.2 °F - 33.8 °F 58% 29.75 in 10.0 mi ESE 8.1 mph 18.4 mph N/A   Overcast
11:35 AM 48.2 °F - 33.8 °F 58% 29.74 in 10.0 mi East 8.1 mph - N/A   Overcast
11:55 AM 48.2 °F - 32.0 °F 54% 29.73 in 10.0 mi ESE 6.9 mph - N/A   Mostly Cloudy
12:15 PM 48.2 °F - 33.8 °F 58% 29.72 in 10.0 mi ESE 5.8 mph - N/A   Scattered Clouds
12:35 PM 48.2 °F - 33.8 °F 58% 29.71 in 10.0 mi ESE 6.9 mph - N/A   Partly Cloudy
12:55 PM 50.0 °F - 33.8 °F 54% 29.70 in 10.0 mi SE 8.1 mph - N/A   Mostly Cloudy
1:15 PM 50.0 °F - 33.8 °F 54% 29.70 in 10.0 mi SE 8.1 mph - N/A   Overcast
1:35 PM 50.0 °F - 32.0 °F 50% 29.71 in 10.0 mi South 3.5 mph - N/A   Overcast
1:55 PM 50.0 °F - 32.0 °F 50% 29.69 in 10.0 mi ESE 5.8 mph - N/A   Overcast
2:15 PM 48.2 °F - 33.8 °F 58% 29.66 in 10.0 mi ESE 5.8 mph - N/A   Overcast
2:35 PM 48.2 °F - 35.6 °F 62% 29.67 in 10.0 mi SSE 4.6 mph - N/A   Overcast
2:55 PM 46.4 °F 45.2 °F 35.6 °F 66% 29.65 in 9.0 mi SSE 3.5 mph - 0.01 in   Overcast
3:15 PM 44.6 °F - 35.6 °F 71% 29.63 in 9.0 mi Calm Calm - N/A   Overcast
3:35 PM 44.6 °F - 37.4 °F 76% 29.61 in 10.0 mi Calm Calm - N/A   Overcast
3:55 PM 44.6 °F - 37.4 °F 76% 29.60 in 10.0 mi Calm Calm - N/A   Overcast
4:15 PM 44.6 °F 43.1 °F 37.4 °F 76% 29.58 in 10.0 mi NNE 3.5 mph - N/A   Overcast
4:35 PM 44.6 °F 43.1 °F 37.4 °F 76% 29.57 in 10.0 mi East 3.5 mph - N/A   Overcast
4:55 PM 48.2 °F - 35.6 °F 62% 29.55 in 10.0 mi NE 3.5 mph - N/A   Scattered Clouds
5:15 PM 48.2 °F - 33.8 °F 58% 29.55 in 10.0 mi SE 6.9 mph - N/A   Mostly Cloudy
5:35 PM 50.0 °F - 33.8 °F 54% 29.51 in 10.0 mi SE 16.1 mph 21.9 mph N/A   Overcast
5:55 PM 50.0 °F - 32.0 °F 50% 29.51 in 10.0 mi SE 12.7 mph 23.0 mph N/A   Overcast
6:15 PM 51.8 °F - 32.0 °F 47% 29.52 in 10.0 mi SE 5.8 mph - N/A   Mostly Cloudy
6:35 PM 51.8 °F - 33.8 °F 50% 29.53 in 10.0 mi South 4.6 mph - N/A Thunderstorm Mostly Cloudy
6:55 PM 50.0 °F - 33.8 °F 54% 29.53 in 10.0 mi SSE 8.1 mph 17.3 mph N/A   Overcast
7:15 PM 48.2 °F - 33.8 °F 58% 29.53 in 10.0 mi SSE 9.2 mph - N/A   Overcast
7:35 PM 46.4 °F 40.4 °F 33.8 °F 62% 29.51 in 10.0 mi SE 13.8 mph 18.4 mph N/A   Overcast
7:55 PM 46.4 °F 40.7 °F 32.0 °F 57% 29.51 in 10.0 mi SE 12.7 mph 18.4 mph N/A   Overcast
8:15 PM 46.4 °F 40.7 °F 32.0 °F 57% 29.50 in 10.0 mi SE 12.7 mph 20.7 mph N/A   Overcast
8:35 PM 46.4 °F 40.7 °F 30.2 °F 53% 29.50 in 10.0 mi SE 12.7 mph 19.6 mph N/A   Overcast
8:55 PM 44.6 °F 39.7 °F 30.2 °F 57% 29.50 in 10.0 mi SE 9.2 mph 18.4 mph N/A   Scattered Clouds
9:15 PM 44.6 °F 38.4 °F 30.2 °F 57% 29.50 in 10.0 mi SE 12.7 mph 18.4 mph N/A   Mostly Cloudy
9:35 PM 44.6 °F 38.8 °F 30.2 °F 57% 29.49 in 10.0 mi SE 11.5 mph 17.3 mph N/A   Mostly Cloudy
9:55 PM 44.6 °F 39.7 °F 30.2 °F 57% 29.48 in 10.0 mi SE 9.2 mph - N/A   Partly Cloudy
10:15 PM 44.6 °F 38.1 °F 30.2 °F 57% 29.46 in 10.0 mi SE 13.8 mph 17.3 mph N/A   Clear
10:35 PM 46.4 °F 39.8 °F 30.2 °F 53% 29.45 in 10.0 mi SE 16.1 mph 23.0 mph N/A   Partly Cloudy
10:55 PM 46.4 °F 40.4 °F 30.2 °F 53% 29.44 in 10.0 mi SSE 13.8 mph 20.7 mph N/A   Clear
11:15 PM 46.4 °F 40.7 °F 30.2 °F 53% 29.43 in 10.0 mi SSE 12.7 mph 19.6 mph N/A   Scattered Clouds
11:35 PM 46.4 °F 40.7 °F 32.0 °F 57% 29.42 in 10.0 mi SSE 12.7 mph 19.6 mph N/A   Mostly Cloudy
11:55 PM 48.2 °F - 33.8 °F 58% 29.41 in 10.0 mi SSE 13.8 mph 24.2 mph N/A   Mostly Cloudy